Portada
METAR-TAF:

METAR-TAF

Aeroports :

Morrisville-Stowe State Airport

Morrisville, Vermont, Estats Units d'Amèrica

latitud: 44-32-10N, longitud: 072-36-58W, altitud: 223 m

Observació

L'informe es va fer fa 9 minuts, a les 20:54 UTC
Vent 3 kt del Nord
Temperatura -8°C
Humitat 52%
Pressió 1027 hPa
Visibilitat: 16.1 km

METAR: KMVL 132054Z AUTO 35003KT 10SM M08/M16 A3032 RMK AO2 SLP283 T10831156 53023

Hora: 16:03 (21:03 UTC)


TAF: manca

Observacions i pronòstics meteorològics de més de 4000 aeroports (METAR i TAF).

Les estacions disponibles són els punts grocs i vermells al mapa.

Posi el ratolí al punt desitjat per veure el nom de l'estació.

Feu clic per veure les observacions i els pronòstics meteorològics.

Per canviar el mapa: feu clic els botons verds amb una creu de color negre per apropar; al botó verd amb un guió per allunyar la imatge; o en les fletxes verdes per a mapes adjacents.


METAR-TAF: